Regional Weather Roundup
Issued by NWS Goodland, KS

Home | Current Version | Previous Version | Graphics & Text | Print | Product List | Glossary On
Versions: 1 2 3 4 5 6 7 8 9 10 11 12 13 14 15 16 17 18 19 20 21 22 23 24 25 26 27 28 29 30 31 32 33 34 35 36 37 38 39 40 41 42 43 44 45 46 47 48 49 50
000
ASUS43 KGLD 270508
RWRGLD

GOODLAND FORECAST AREA HOURLY WEATHER ROUNDUP
NATIONAL WEATHER SERVICE GOODLAND KS
1000 PM MST WED NOV 26 2014

...OFFICIAL OBSERVATIONS...

CITY           SKY/WX    TMP DP  RH WIND       PRES   REMARKS
GOODLAND KS    CLOUDY    27  24  89 S9        30.34F
HILL CITY KS   CLOUDY    33  19  56 S3        30.41R
IMPERIAL NEB   CLOUDY    31  28  89 S7        30.32F
MCCOOK NEB     CLOUDY    31  20  63 SE5       30.36F
AKRON CO       CLEAR     22  21  96 SE10      30.28R WCI  11
BURLINGTON CO  PTCLDY    20  16  84 SE6       30.33R
LIMON CO       CLEAR     27  20  75 SE8       30.30R
$$

...UNOFFICIAL OBSERVATIONS...

CITY           SKY/WX    TMP DP  RH WIND       PRES   REMARKS
COLBY KS       CLOUDY    30  28  93 SE5       30.37S
GOVE KS          N/A     32  32 100 MISG        N/A
NORTON KS      MOCLDY    28  16  59 CALM      30.38S
SHARON SPRINGS   N/A     22  18  84 CALM        N/A
TRIBUNE KS     PTCLDY    23  21  93 CALM      30.39R
TRENTON NEB      N/A     32  32 100 W5          N/A
YUMA CO          N/A     21  18  88 CALM        N/A
$$



USA.gov is the U.S. government's official web portal to all federal, state and local government web resources and services.